Philadelphia, PA

9:49 PM EST on December 08, 2019 (GMT -0500)
Philadelphia International

Weather History for KPHL - November, 2019

Change the Weather History Date:

Tuesday, November 12, 2019

  Actual Average Record
Temperature  
Mean Temperature 42 °F 49 °F  
Max Temperature 58 °F 58 °F 75 °F (1879)
Min Temperature 26 °F 40 °F 26 °F (1960)
Degree Days  
Heating Degree Days 23 16  
Month to date heating degree days 230 173  
Since 1 July heating degree days 382 466  
Cooling Degree Days 0 0  
Month to date cooling degree days 0 0  
Year to date cooling degree days 1610 1300  
Moisture  
Dew Point 29 °F    
Average Humidity 66    
Maximum Humidity 86    
Minimum Humidity 34    
Precipitation  
Precipitation 0.10 in 0.08 in 1.90 in (1975)
Month to date precipitation 0.24 1.12  
Year to date precipitation 41.30 36.10  
Snow  
Snow T in 0.00 in 0.40 in (1968)
Month to date snowfall T 0.0  
Since 1 July snowfall T 0.0  
Since 1 September snowfall T 0.0  
Snow Depth 0.00 in    
Sea Level Pressure  
Sea Level Pressure 29.95 in    
Wind  
Wind Speed 12 mph ()    
Max Wind Speed 29 mph    
Max Gust Speed 37 mph    
Visibility 8.5 miles    
Events Rain , Snow    
T = Trace of Precipitation, MM = Missing Value Source: Averaged Metar Reports

Daily Weather History Graph

Daily Weather History Graph

Search for Another Location

Airport or City:

Astronomy

Nov. 12, 2019 Rise Set
Actual Time 6:42 AM EST 4:47 PM EST
Civil Twilight 6:13 AM EST 5:16 PM EST
Nautical Twilight 5:40 AM EST 5:48 PM EST
Astronomical Twilight 5:08 AM EST 6:20 PM EST
Moon 5:13 PM EST (11/12) 6:31 AM EST (11/12)
Length of Visible Light 11h 02m
Length of Day
10h 05m
Full, 100% of the Moon is Illuminated
Nov 12
Full
Nov 19
Last Quarter
Nov 26
New
Dec 4
First Quarter
Dec 12
Full

Hourly Weather History & Observations

Time (EST) Temp. Windchill Dew Point Humidity Pressure Visibility Wind Dir Wind Speed Gust Speed Precip Events Conditions
12:54 AM 55.0 °F - 43.0 °F 64% 29.78 in 10.0 mi South 5.8 mph - N/A   Overcast
1:54 AM 55.9 °F - 42.1 °F 60% 29.76 in 10.0 mi SSW 9.2 mph - N/A   Mostly Cloudy
2:54 AM 57.0 °F - 42.1 °F 57% 29.69 in 10.0 mi South 8.1 mph - N/A   Overcast
3:54 AM 57.0 °F - 41.0 °F 55% 29.73 in 10.0 mi SW 13.8 mph 25.3 mph N/A   Overcast
4:54 AM 57.0 °F - 41.0 °F 55% 29.74 in 10.0 mi SW 11.5 mph - N/A   Overcast
5:54 AM 55.9 °F - 42.1 °F 60% 29.76 in 10.0 mi WSW 12.7 mph - 0.00 in Rain Light Rain
6:54 AM 52.0 °F - 46.9 °F 83% 29.77 in 8.0 mi WSW 12.7 mph - 0.03 in Rain Light Rain
7:54 AM 51.1 °F - 46.9 °F 86% 29.80 in 7.0 mi WSW 10.4 mph - 0.04 in Rain Light Rain
8:11 AM 45.0 °F 35.4 °F 39.0 °F 80% 29.83 in 8.0 mi NNW 28.8 mph 35.7 mph 0.02 in Rain Rain
8:21 AM 44.1 °F 35.9 °F 39.0 °F 82% 29.84 in 10.0 mi NW 19.6 mph - 0.02 in Rain Light Rain
8:47 AM 43.0 °F 34.5 °F 37.0 °F 80% 29.85 in 10.0 mi NNW 19.6 mph 25.3 mph 0.02 in Rain Light Rain
8:54 AM 43.0 °F 34.5 °F 37.0 °F 80% 29.86 in 10.0 mi NW 19.6 mph 25.3 mph 0.02 in Rain Light Rain
9:54 AM 42.1 °F 34.2 °F 34.0 °F 73% 29.91 in 10.0 mi WNW 16.1 mph - 0.00 in Rain Light Rain
10:54 AM 37.0 °F 28.5 °F 30.0 °F 76% 29.95 in 10.0 mi NNW 13.8 mph 24.2 mph 0.01 in Rain Light Rain
11:14 AM 36.0 °F 26.7 °F 30.0 °F 79% 29.96 in 10.0 mi NNW 15.0 mph - 0.00 in Rain , Snow Light Rain
11:29 AM 36.0 °F 26.0 °F 30.0 °F 79% 29.98 in 2.5 mi NW 17.3 mph - 0.00 in Rain , Snow Light Rain
11:44 AM 36.0 °F 25.0 °F 30.0 °F 79% 29.97 in 1.8 mi NNW 20.7 mph 25.3 mph 0.00 in Rain , Snow Light Snow
11:45 AM 35.1 °F 24.1 °F 30.0 °F 82% 29.97 in 0.8 mi NNW 19.6 mph 25.3 mph 0.00 in Rain , Snow Light Snow
11:54 AM 35.1 °F 25.5 °F 28.9 °F 78% 29.98 in 0.8 mi NW 15.0 mph - 0.00 in Rain , Snow Light Snow
12:07 PM 35.1 °F 27.9 °F 30.0 °F 82% 29.97 in 2.0 mi NW 9.2 mph - 0.00 in Snow Light Snow
12:11 PM 35.1 °F 27.9 °F 30.0 °F 82% 29.97 in 7.0 mi NW 9.2 mph - 0.00 in Snow Light Snow
12:19 PM 35.1 °F 28.6 °F 30.0 °F 82% 29.97 in 10.0 mi NW 8.1 mph - 0.00 in   Overcast
12:54 PM 36.0 °F 25.6 °F 26.1 °F 67% 29.97 in 10.0 mi NW 18.4 mph 26.5 mph 0.00 in   Overcast
1:28 PM 36.0 °F 24.2 °F 25.0 °F 64% 29.97 in 10.0 mi NW 24.2 mph 32.2 mph N/A   Overcast
1:54 PM 36.0 °F 26.7 °F 25.0 °F 64% 29.98 in 10.0 mi NW 15.0 mph 24.2 mph N/A   Overcast
2:54 PM 35.1 °F 25.9 °F 24.1 °F 64% 30.00 in 10.0 mi NW 13.8 mph - N/A   Overcast
3:54 PM 35.1 °F 25.2 °F 21.9 °F 59% 30.03 in 10.0 mi NNW 16.1 mph 24.2 mph N/A   Overcast
4:54 PM 34.0 °F 24.6 °F 17.1 °F 50% 30.06 in 10.0 mi NNW 13.8 mph - N/A   Mostly Cloudy
5:54 PM 33.1 °F 23.9 °F 16.0 °F 50% 30.09 in 10.0 mi North 12.7 mph - N/A   Scattered Clouds
6:54 PM 32.0 °F 21.2 °F 14.0 °F 48% 30.12 in 10.0 mi North 16.1 mph - N/A   Scattered Clouds
7:54 PM 30.9 °F 19.8 °F 15.1 °F 52% 30.16 in 10.0 mi North 16.1 mph 25.3 mph N/A   Partly Cloudy
8:54 PM 28.9 °F 18.2 °F 12.0 °F 49% 30.19 in 10.0 mi North 13.8 mph 23.0 mph N/A   Partly Cloudy
9:54 PM 28.0 °F 15.7 °F 7.0 °F 41% 30.22 in 10.0 mi North 17.3 mph 26.5 mph N/A   Partly Cloudy
10:54 PM 27.0 °F 16.1 °F 6.1 °F 41% 30.23 in 10.0 mi NNW 12.7 mph - N/A   Clear
11:54 PM 26.1 °F 15.6 °F 1.0 °F 34% 30.25 in 10.0 mi NNW 11.5 mph 19.6 mph N/A   Clear